Погода в Ижме

Погода в Ижме : погода сейчас, прогноз погоды и архив. Всё, что Вы хотите узнать о погоде в Ижме!

Поиск расширенной информации на нашем сайте:

Другие новости

Новости СМИ2

Главная страница сайта

Новости сайта

03.07.2017

Напоминаем, что на нашем специализированном сайте Метеоцентр.Азия вы можете получить высокодетализированные автоматические прогнозы погоды по пунктам России, СНГ и мира в авиационном формате (включающие направление и скорость ветра, видимость, явления погоды, количество и форму облачности, нижнюю и верхнюю границу облачности).


Погода в Ижме - сегодня

Время (UTC), дата Ветер
(°,м/с) 
Видим.   Явления Облачность Т
(°С)
Тd
(°С)
f(%) Тe
(°С)
Pmin
(гПа)
dP
(гПа)
Po
(мм)
O2
(г/м3)
Тmin Tmax R s Состояние
почвы
00 18.06.18 360 (С) 20000 м    6/0 верхняя 
[Ci fib]
+9.5 +6.5 82 +10  1015.2  0.2  758  294           
06 18.06.18 010 (С) 20000 м    8/3 1000 м кучево-дожд., верхняя 
[Cb cap|Cc]
+20 +3.4 33 +20  1014.2  -0.4  757  284           
09 18.06.18 010 (С) 20000 м    4/1 1000 м кучево-дожд., верхняя 
[Cb cap|Cs]
+23.4 +1.4 23 +23  1013.2  -0.9  756  281           
18 18.06.18 020 (С) 20000 м    ясно 
+17.9 +3 37 +19  1012.1  756  285           
21 18.06.18 050 (СВ) 20000 м    1/0 верхняя 
[Ci fib]
+12.1 +5.7 65 +12  1012.4  0.2  756  291           
00 19.06.18 040 (СВ) 20000 м    ясно 
+9.8 +3.8 66 +10  1012.7  0.2  756  293           
06 19.06.18 360 (С) 20000 м    3/3 1000 м 
[Cu hum]
+16.9 -2.3 27 +17  1010.7  -1.6  754  287           
09 19.06.18 010 (С) 20000 м    3/1 1000 м верхняя 
[Cu hum|Ci fib]
+20.2 +3.4 33 +20  1008.9  -1.7  753  282           
12 19.06.18 020 (С) 20000 м    6/6 1000 м кучево-дожд. 
[Cb cap]
+21.7 +3.8 31 +22  1006.6  -2.2  752  280           
18 19.06.18 тихо ()   20000 м    3/0 верхняя 
[Ci fib]
+13.3 +7.3 67 +13  1003.3  -1.4  749  287           
21 19.06.18 110 (В) 20000 м    3/0 средняя 
[Ac lent]
+12.5 +4.8 59 +12  1001.9  -1.4  748  287           
00 20.06.18 тихо ()   20000 м    3/0 средняя, верхняя 
[Ac lent|Ci fib]
+9.8 +6 77 +10  1000.9  -1.1  747  290           
06 20.06.18 110 (В) 20000 м    1/0 верхняя 
[Ci fib]
+20.3 +5.2 37 +20  995.1  -3  743  278           
09 20.06.18 110 (В) 20000 м    4/3 1000 м верхняя 
[Cu hum|Ci fib]
+23.3 +4.8 30 +23  992.2  -2.8  741  274           
12 20.06.18 150 (ЮВ) 20000 м    6/4 1000 м верхняя 
[Cu hum|Ci fib]
+24.9 +3.1 24 +25  989.6  -2.6  739  272           
18 20.06.18 100 (В) 20000 м    4/3 1000 м верхняя 
[Cu hum|Ci fib]
+19.2 +7.9 48 +20  987.1  -0.6  737  276           
21 20.06.18 100 (В) 20000 м    9/3 1000 м кучево-дожд., средняя 
[Cb cap|Ac trans]
+16.8 +8.2 57 +17  986.3  -0.8  736  278           
00 21.06.18 090 (В) 20000 м    10/5 1000 м кучево-дожд., средняя 
[Cb cap|Ac und]
+15.6 +8.1 61 +16  985.6  -0.7  736  279           
06 21.06.18 090 (В) 20000 м    8/0 средняя, верхняя 
[Ac trans|Cc]
+23.5 +7.1 35 +24  986.8  0.6  737  272           
09 21.06.18 050 (СВ) 20000 м    4/4 1000 м 
[Cu med, cong]
+25.2 +6.2 30 +25  987.9  1.1  738  271           
18 21.06.18 350 (С) 20000 м    4/0 средняя, верхняя 
[Ac trans|Ci fib]
+19.6 +9.5 52 +22  992.5  1.6  741  277           
21 21.06.18 010 (С) 20000 м    8/0 средняя, верхняя 
[Ac trans|Ci fib]
+14.6 +8.6 67 +15  995.1  2.5  743  283           
00 22.06.18 330 (СЗ) 20000 м    9/1 600 м кучево-дожд., средняя 
[Cb cap|Ac trans]
+14.1 +9.7 75 +16  997  1.9  744  283           
06 22.06.18 350 (С) 20000 м  {дождь}  10/0 средняя 
[Ac As]
+14.7 +9.4 71 +15  1000.7  1.7  747  284           
09 22.06.18 350 (С) 20000 м    9/3 1000 м средняя 
[Cu hum|Ac As]
+17.5 +9.3 59 +18  1002.7  749  282           
Время (UTC), дата Ветер
(°,м/с) 
Видим.   Явления Облачность Т
(°С)
Тd
(°С)
f(%) Тe
(°С)
Pmin
(гПа)
dP
(гПа)
Po
(мм)
O2
(г/м3)
Тmin Tmax R s Состояние
почвы

Для получения пояснительной информации подведите курсор к названию столбца.

ПОГОДА в Ижме - архив

Всё, что Вы хотите узнать о погоде в Ижме - удобно и подробно!

Выберите нужную дату (начиная с 1 января 2015* года) и нажмите кнопку "Найти".
Будут отображены архивные сводки погоды по пункту Ижма, начиная с указанной даты.


Отображать данные в формате CSV (для использования в таблицах Excel)


Внимание! Наш архив погоды предназначен исключительно для личного некоммерческого использования в познавательных целях. Если Вам необходимы официальные справки о состоянии погоды (для производственных, юридических, коммерческих и т.п. целей), обращайтесь в органы Росгидромета.

*Примечание: данная дата относится к архиву по метеостанциям СССР (Россия, СНГ, Балтия).
Архив по метеостанциям Зарубежной Европы и Азии (кроме Китая) хранится 10 дней, по другим регионам земного шара (Китай, Африка, Америка, Австралия, Океания) - 1 день.

Ижма - район местоположения метеостанции


Название, широта, долгота, высота метеостанции:
Ижма 65°ш. 53.9°д. 38 м над ур. моря [Российская Федерация]

Дополнительная информация

В oтличие oт бoльшинства пoгoдных сайтoв мы публикуем пoдрoбную метеoинфoрмацию в детальнoм прoфессиoнальнoм фoрмате.

Характеристики температуры и влажнoсти вoздуха измеряются на высoте 2 м в тени вдали oт зданий и деревьев.
Скoрoсть ветра измеряется на высoте 10 м (на урoвне рoста челoвека скoрoсть ветра ниже в 1.5-2 раза). Если метеoстанция нахoдится в гoрoде или в лесу, тo скoрoсть ветра занижена на 2-4 м/с пo сравнению с oткрытым местoм. Скoрoсть ветра над акватoриями крупных рек и oзёр, а также на вершинах хoлмoв на 2-5 м/с выше, чем в oбычных услoвиях.
Атмoсфернoе давление в разных тoчках местнoсти мoжет значительнo oтличаться oт давления на метеoстанции, в зависимoсти oт услoвий рельефа (при пoдъёме на 10 м давление пoнижается примернo на 1 мм рт.ст.).